FLOCK 4E'-1 (46813 NORAD) Tracking and Keplerian Element Data

This shows tracking and keplerian element data for the satellite.

Feedback or suggestion? Click here.




ElementValue
Catalog46813
NameFLOCK 4E'-1
Epoch Orbit541
Epoch Day338.6578817
Epoch Year2020
RAAN38.6476
Inclination97.4967
Eccentricity0.0012426
Argument of Perigee199.5785
Mean Anonmoly263.4867
Mean Motion15.15591569
Decay Rate5.268E-05
L11 46813U 20077A 20338.65788170 .00005268 00000-0 28046-3 0 9990
L22 46813 97.4967 38.6476 0012426 199.5785 263.4867 15.15591569 5412

Live tracking and technical data element details for FLOCK 4E'-1 (NORAD 46813). FLOCK 4E'-1 can be tracked NOW for your location showing map with azimuth and elevation plus other details from your city location.

Track the satellite on the map from your city or location and see movement details for azimuth, elevation, latitude, longitude, range, height, and movement on the map or in text.







IsCatalogInMostPopularTable: catalog: 46813, numindb: 8
Update: records affected: 1



GetName: 46813 FLOCK 4E'-1

Hit Count: updated at: Sat, 05 Dec 2020 05:13:05 GMT